Location: Kuzca
(36.6690°N, 30.3320°E)
Time: 03:49:32
(UTC+00:00)

Daily predictions for brighter satellites

Satellite Brightness Start Highest point End
(mag) Time Altitude Azimuth Time Altitude Azimuth Time Altitude Azimuth
USA 229 DEB 3.8 02:11:39 73° SSW 02:11:39 73° SSW 02:18:48 10° SSE
USA 229 3.8 02:11:42 74° SSW 02:11:42 74° SSW 02:18:53 10° SSE
NOSS 3-1 (A) 4.1 02:14:16 34° NNW 02:18:17 83° ENE 02:27:06 10° SSE
Cosmos 1943 Rocket 3.6 02:14:18 10° N 02:19:17 34° ENE 02:24:15 10° SE
USA 267 3.2 02:17:02 10° SSE 02:23:18 65° SW 02:23:18 65° SW
H-2A R/B 3.0 02:25:24 10° NNE 02:29:40 62° E 02:29:40 62° E
SL-16 R/B 3.7 02:33:07 24° NNW 02:33:07 24° NNW 02:35:42 10° N
Cosmos 2297 4.2 02:32:45 46° S 02:32:45 46° S 02:36:43 10° S
Cosmos 1992 Rocket 3.9 02:43:17 64° SW 02:43:17 64° SW 02:47:58 10° S
Cosmos 292 Rocket 3.8 02:44:44 63° SSW 02:44:44 63° SSW 02:48:47 10° S
Cosmos 1842 Rocket 3.7 02:44:44 65° N 02:44:44 65° N 02:48:35 10° N
Milstar 3 4.5 02:36:28 34° WSW 02:44:16 56° SSW 02:54:01 10° ESE
STARLINK-1054 4.4 02:46:28 43° SSE 02:46:28 43° SSE 02:49:24 10° SE
Cosmos 1603 3.7 02:43:30 27° SSW 02:46:45 85° ESE 02:52:28 10° NNE
Cosmos 2369 Rocket 3.2 02:41:49 10° N 02:47:20 47° ENE 02:52:47 10° SE
Aureole 1 Rocket 4.4 02:41:42 11° SSW 02:48:46 86° WNW 02:57:18 10° NNE
STARLINK-1062 4.3 02:51:14 44° S 02:51:14 44° S 02:54:19 10° SSE
CZ-4B R/B 4.1 02:47:09 10° N 02:50:59 62° NNW 02:50:59 62° NNW
Cosmos 1943 3.4 02:46:19 10° SSW 02:51:53 71° ESE 02:57:29 10° NNE
Shenzhou-11 Module 4.2 02:55:25 21° NE 02:55:25 21° NE 02:56:29 10° ENE
STARLINK-1053 4.2 02:56:00 44° S 02:56:00 44° S 02:59:13 10° SSE
Meteor PRIRODA 3.5 02:56:13 10° NNE 02:59:56 88° ESE 03:01:00 44° S
Lacrosse 5 2.6 02:56:47 21° NNW 02:59:59 49° NE 03:04:53 10° ESE
STARLINK-1061 4.2 03:00:49 42° SSW 03:00:49 42° SSW 03:04:09 10° SSE
COSMO-SKYMED 1 3.3 02:57:39 10° SSE 03:01:52 53° ENE 03:06:06 10° N
STARLINK-1067 4.2 03:05:35 39° SSW 03:05:35 39° SSW 03:09:01 10° SSE
Cosmos 1633 4.4 03:03:22 10° NNE 03:06:42 33° E 03:10:00 10° SE
Cosmos 2221 2.4 03:05:17 38° SW 03:06:44 60° W 03:10:58 10° N
STARLINK-1058 4.3 03:10:23 36° SW 03:10:23 36° SW 03:13:54 10° SSE
Meteor 2-3 Rocket 3.7 03:04:30 10° NNW 03:10:13 67° W 03:15:57 10° S
STARLINK-1098 3.4 03:09:27 52° WSW 03:10:20 75° NW 03:14:23 10° NE
DELTA 2 R/B (1) 3.9 03:08:17 27° SW 03:11:17 61° SSE 03:16:46 10° ENE
CZ-2C R/B 3.7 03:07:43 10° NNW 03:10:46 25° NW 03:10:46 25° NW
BREEZE-M DEB (TANK) 3.5 03:10:06 24° SSW 03:12:05 60° SE 03:16:42 10° ENE
STARLINK-1123 3.5 03:13:57 45° WSW 03:15:01 68° NW 03:19:03 10° NE
STARLINK-1043 4.4 03:15:08 33° SW 03:15:08 33° SW 03:18:45 10° SSE
Cosmos 1023 Rocket 4.4 03:11:02 10° SSW 03:16:18 87° WNW 03:21:36 10° NNE
STARLINK-1097 3.6 03:18:34 40° WSW 03:19:48 61° NW 03:23:49 10° NE
Aurora 2 Rocket 4.5 03:18:33 15° SW 03:20:45 19° S 03:23:42 10° SE
ALOS 2.1 03:16:19 10° N 03:21:00 78° WNW 03:25:38 10° SSW
Cosmos 1605 Rocket 4.4 03:15:58 10° NNW 03:21:31 36° W 03:27:01 10° SSW
Cosmos 1484 Rocket 3.2 03:20:22 10° N 03:24:05 40° WNW 03:26:28 19° SW
STARLINK-1099 3.7 03:23:04 35° W 03:24:30 55° NW 03:28:29 10° NE
Cosmos 1238 4.1 03:22:31 10° SSW 03:25:33 53° W 03:28:31 10° N
SKYMED 3 4.4 03:21:34 10° S 03:25:54 79° WSW 03:30:15 10° NNW
STARLINK-1104 3.8 03:27:33 30° W 03:29:10 50° NW 03:33:08 10° NE
STARLINK-1144 3.9 03:32:07 27° W 03:33:57 46° NW 03:37:52 10° NE
Cosmos 1954 Rocket 4.0 03:29:01 10° SSW 03:34:20 89° ESE 03:39:41 10° NNE
Cosmos 407 Rocket 3.9 03:30:45 10° SW 03:35:46 41° WNW 03:40:46 10° N
Meteor 2-2 Rocket 4.5 03:31:06 10° SSW 03:36:58 55° W 03:42:54 10° N
Cosmos 1140 Rocket 3.5 03:32:02 10° SSW 03:37:10 56° WNW 03:42:20 10° N
PAYLOAD B 4.2 03:32:11 10° NNE 03:37:47 90° WNW 03:43:19 10° SSW
STARLINK-1103 4.0 03:36:41 24° W 03:38:42 42° NW 03:42:34 10° NE
STARLINK-1128 4.1 03:39:06 22° W 03:41:08 39° NW 03:44:55 10° NNE
PSLV R/B 4.2 03:38:06 10° N 03:41:34 37° WNW 03:45:05 10° SW
STARLINK-1101 4.2 03:41:13 21° W 03:43:28 38° NW 03:47:17 10° NNE
STARLINK-1113 4.2 03:43:24 20° W 03:45:38 36° NW 03:49:22 10° NNE
CZ-4B R/B 4.5 03:44:53 10° NNW 03:46:10 14° NW 03:46:10 14° NW
METEOR-M 4.3 03:42:55 10° N 03:48:03 48° WNW 03:53:07 10° SW
STARLINK-1102 4.3 03:45:47 18° W 03:48:13 35° NW 03:51:59 10° NNE
SKYMED 2 4.0 03:45:53 10° S 03:49:57 40° W 03:54:03 10° NNW
STARLINK-1119 4.4 03:47:46 18° W 03:50:13 33° NW 03:53:54 10° NNE
Aureole 2 Rocket 2.4 03:48:13 10° NNW 03:51:12 46° WSW 03:54:19 10° S
STARLINK-1111 4.4 03:50:19 16° W 03:52:58 33° NW 03:56:41 10° NNE
Cosmos 1805 Rocket 3.5 03:49:23 10° NNW 03:53:39 61° W 03:57:55 10° S
STARLINK-1114 4.5 03:52:10 16° W 03:54:48 31° NW 03:58:25 10° NNE
Sich 1 2.9 03:51:50 10° N 03:56:08 83° W 04:00:26 10° S
Cosmos 2173 Rocket 4.1 03:50:42 10° NNW 03:56:46 54° W 04:02:44 10° SSW
SMAP 4.1 03:56:27 10° NNE 04:01:00 52° E 04:05:32 10° S
Cosmos 1943 Rocket 3.0 03:58:13 10° NW 04:02:51 28° WSW 04:07:28 10° SSW
Cosmos 2084 4.2 03:58:45 10° WSW 04:02:52 34° NW 04:06:59 10° NNE
H-2A R/B 4.5 04:03:13 10° NW 04:04:44 12° WNW 04:06:15 10° W
DMSP B5D1-3 4.5 04:01:24 10° S 04:06:29 75° WSW 04:11:34 10° NNW
Cosmos 1400 Rocket 3.0 04:05:08 10° SSW 04:09:00 50° WNW 04:12:57 10° N
Okean O Rocket 1.8 04:06:34 10° N 04:10:47 49° WNW 04:14:58 10° SSW
Cosmos 1606 3.8 04:07:40 10° S 04:11:21 49° E 04:15:02 10° NNE
Cosmos 2100 Rocket 4.5 04:06:30 10° NNW 04:12:04 36° W 04:17:35 10° SSW
Envisat 4.4 04:07:23 10° NNE 04:12:15 44° E 04:17:04 10° S
NOSS 3-3 (A) 3.9 04:08:32 10° SW 04:14:16 69° NW 04:20:38 10° NNE
NOSS 3-3 (C) 3.9 04:08:37 10° SW 04:14:21 70° NW 04:20:45 10° NNE
Cosmos 1151 Rocket 3.0 04:14:47 10° S 04:19:04 81° W 04:23:25 10° N
